FW2611 Weather Reports


Display with metric or nautical units.
time (UTC)temp
F
wind
direction
speed
MPH
gust
MPH
rain 1hr
in
rain 24hr
in
rain mn
in
humidity
%
barometer
mb
20260506011507 58 210 8.0 18.0 0.00 0.00 0.00 82 1013.4
20260506010012 57 191 10.0 19.0 0.00 0.00 0.00 83 1013.3
20260506004529 58 196 8.0 19.0 0.00 0.00 0.00 83 1013.2
20260506003035 58 196 9.0 20.0 0.00 0.00 0.00 82 1013.1
20260506001523 58 224 8.0 21.0 0.00 0.00 0.00 82 1012.9
20260506000005 58 217 9.0 19.0 0.00 0.00 0.00 80 1012.8
20260505234510 59 188 11.0 22.0 0.00 0.00 0.00 80 1012.8
20260505233012 59 189 12.0 21.0 0.00 0.00 0.00 78 1012.7
20260505231521 61 192 11.0 21.0 0.00 0.00 0.00 75 1012.6
20260505230021 62 214 11.0 27.0 0.00 0.00 0.00 71 1012.5
20260505224508 63 225 11.0 23.0 0.00 0.00 0.00 70 1012.4
20260505223010 63 194 11.0 23.0 0.00 0.00 0.00 69 1012.2
20260505221519 63 186 10.0 22.0 0.00 0.00 0.00 68 1012.3
20260505220027 64 212 12.0 22.0 0.00 0.00 0.00 67 1012.1
20260505214529 64 200 12.0 29.0 0.00 0.00 0.00 67 1011.9
20260505213008 64 198 12.0 25.0 0.00 0.00 0.00 67 1011.9
20260505211514 64 206 13.0 24.0 0.00 0.00 0.00 67 1011.9
20260505210019 65 257 13.0 29.0 0.00 0.00 0.00 67 1012.0
20260505204523 65 201 10.0 24.0 0.00 0.00 0.00 66 1011.8
20260505203025 65 215 11.0 23.0 0.00 0.00 0.00 66 1011.8
20260505201526 65 198 13.0 24.0 0.00 0.00 0.00 66 1012.0
20260505200015 65 194 12.0 26.0 0.00 0.00 0.00 66 1012.1
20260505194531 66 205 12.0 20.0 0.00 0.00 0.00 66 1012.4
20260505193036 65 158 10.0 20.0 0.00 0.00 0.00 66 1012.6
20260505191534 65 190 8.0 18.0 0.00 0.00 0.00 67 1012.7
20260505190012 66 203 7.0 18.0 0.00 0.00 0.00 66 1012.9
20260505184516 66 207 6.0 15.0 0.00 0.00 0.00 66 1013.0
20260505183015 66 159 5.0 15.0 0.00 0.00 0.00 67 1013.0
20260505181504 64 212 7.0 19.0 0.00 0.00 0.00 68 1013.2
20260505180010 65 206 8.0 16.0 0.00 0.00 0.00 68 1013.4
20260505174523 64 189 7.0 18.0 0.00 0.00 0.00 69 1013.4
20260505173020 64 243 8.0 19.0 0.00 0.00 0.00 69 1013.5
20260505171504 64 223 7.0 16.0 0.00 0.00 0.00 69 1013.4
20260505170016 64 207 6.0 16.0 0.00 0.00 0.00 70 1013.4
20260505164516 63 175 7.0 15.0 0.00 0.00 0.00 71 1013.3
20260505163020 63 200 6.0 15.0 0.00 0.00 0.00 71 1013.6
20260505161519 63 203 5.0 14.0 0.00 0.00 0.00 72 1013.6
20260505153012 61 186 10.0 17.0 0.00 0.00 0.00 75 1013.8
20260505151519 61 193 4.0 15.0 0.00 0.00 0.00 75 1013.7
20260505124524 57 211 4.0 10.0 0.00 0.00 0.00 83 1013.7
20260505123030 57 220 4.0 14.0 0.00 0.00 0.00 84 1013.5
20260505121525 56 200 6.0 11.0 0.00 0.00 0.00 85 1013.6
20260505120013 56 209 7.0 16.0 0.00 0.00 0.00 86 1013.4
20260505114520 56 209 8.0 15.0 0.00 0.00 0.00 86 1013.4
20260505113034 56 192 6.0 13.0 0.00 0.00 0.00 86 1013.3
20260505111541 55 171 4.0 11.0 0.00 0.00 0.00 86 1013.3
20260505101532 54 207 6.0 14.0 0.00 0.00 0.00 89 1012.5
20260505100033 54 224 4.0 9.0 0.00 0.00 0.00 89 1012.6
20260505094528 54 205 4.0 12.0 0.00 0.00 0.00 89 1012.4
20260505093022 54 197 4.0 7.0 0.00 0.00 0.00 88 1012.4
20260505091505 55 202 2.0 8.0 0.00 0.00 0.00 88 1012.2
20260505090008 54 222 5.0 10.0 0.00 0.00 0.00 89 1012.1
20260505084517 54 219 4.0 11.0 0.00 0.00 0.00 89 1012.2
20260505083021 55 221 8.0 14.0 0.00 0.00 0.00 89 1012.2
20260505081526 54 193 9.0 16.0 0.00 0.00 0.00 89 1012.2
20260505080012 55 234 9.0 15.0 0.00 0.00 0.00 89 1012.3
20260505074510 55 194 5.0 11.0 0.00 0.00 0.00 89 1012.3
20260505073017 55 215 5.0 14.0 0.00 0.00 0.00 89 1012.3
20260505071520 54 216 5.0 12.0 0.00 0.00 0.00 89 1012.1
20260505070028 54 207 6.0 12.0 0.00 0.00 0.00 89 1012.1
20260505064508 54 191 7.0 15.0 0.00 0.00 0.00 89 1012.1
20260505063009 54 215 7.0 16.0 0.00 0.00 0.00 89 1012.2
20260505061528 54 211 8.0 15.0 0.00 0.00 0.00 89 1012.3
20260505060027 54 200 6.0 12.0 0.00 0.00 0.00 89 1012.3
20260505054525 54 207 3.0 13.0 0.00 0.00 0.00 88 1012.4
20260505053026 54 219 4.0 13.0 0.00 0.00 0.00 88 1012.5
20260505051515 54 208 5.0 11.0 0.00 0.00 0.00 87 1012.5
20260505041532 55 209 7.0 15.0 0.00 0.00 0.00 85 1012.8
20260505040015 55 212 7.0 12.0 0.00 0.00 0.00 85 1012.8
20260505034522 55 217 6.0 13.0 0.00 0.00 0.00 85 1012.8
20260505033024 55 163 5.0 13.0 0.00 0.00 0.00 85 1012.8
20260505031527 55 211 7.0 17.0 0.00 0.00 0.00 85 1012.8
20260505024512 55 207 7.0 16.0 0.00 0.00 0.00 85 1013.0
20260505023003 55 193 7.0 17.0 0.00 0.00 0.00 86 1013.1
20260505021504 55 204 8.0 16.0 0.00 0.00 0.00 86 1013.1
20260505020004 55 201 5.0 15.0 0.00 0.00 0.00 85 1013.1
20260505014508 55 175 6.0 13.0 0.00 0.00 0.00 85 1013.1
20260505013017 55 161 7.0 14.0 0.00 0.00 0.00 84 1013.1